Weather History for North Myrtle Beach, SC

Change the Weather History Date:

Saturday, April 20, 2013

  Actual Average Record
Temperature  
Mean Temperature 57 °F 63 °F  
Max Temperature 68 °F 72 °F 87 °F (1955)
Min Temperature 45 °F 53 °F 32 °F (1994)
Degree Days  
Heating Degree Days 8 4  
Month to date heating degree days 88 113  
Since 1 July heating degree days 2354 2395  
Cooling Degree Days 0 2  
Month to date cooling degree days 26 17  
Year to date cooling degree days 30 20  
Growing Degree Days 8 (Base 50)    
Moisture  
Dew Point 53 °F    
Average Humidity 70    
Maximum Humidity 93    
Minimum Humidity 47    
Precipitation  
Precipitation 0.19 in 0.09 in 1.49 in (2008)
Month to date precipitation 4.21 2.03  
Year to date precipitation 12.45 13.06  
Sea Level Pressure  
Sea Level Pressure 30.03 in    
Wind  
Wind Speed 6 mph (NW)    
Max Wind Speed 16 mph    
Max Gust Speed 24 mph    
Visibility 10 miles    
Events Rain    
T = Trace of Precipitation, MM = Missing Value Source: NWS Daily Summary

Daily Weather History Graph

Daily Weather History Graph

Search for Another Location

Airport:

Trip Planner

Search our weather history database for the weather conditions in past years. The results will help you decide how hot, cold, wet, or windy it might be!

Date:

Astronomy

Apr. 20, 2013 Rise Set
Actual Time 6:37 AM EDT 7:50 PM EDT
Civil Twilight 6:11 AM EDT 8:16 PM EDT
Nautical Twilight 5:41 AM EDT 8:47 PM EDT
Astronomical Twilight 5:09 AM EDT 9:19 PM EDT
Moon 2:46 PM EDT (4/20) 3:10 AM EDT (4/20)
Length of Visible Light 14h 04m
Length of Day
13h 12m
Waxing Gibbous, 71% of the Moon is Illuminated
Apr 20
Waxing Gibbous
Apr 25
Full
May 2
Last Quarter
May 9
New
May 18
First Quarter

Hourly Weather History & Observations

Time (EDT) Temp. Dew Point Humidity Pressure Visibility Wind Dir Wind Speed Gust Speed Precip Events Conditions
12:53 AM 68.0 °F 66.9 °F 96% 29.92 in 9.0 mi SW 9.2 mph - N/A   Haze
1:11 AM 68.0 °F 66.2 °F 94% 29.91 in 10.0 mi WSW 5.8 mph - N/A   Haze
1:21 AM 68.0 °F 66.2 °F 94% 29.91 in 10.0 mi WSW 5.8 mph - N/A   Haze
1:42 AM 68.0 °F 66.2 °F 94% 29.91 in 10.0 mi WSW 6.9 mph - 0.00 in Rain Light Rain
1:53 AM 68.0 °F 66.0 °F 93% 29.91 in 10.0 mi WSW 4.6 mph - 0.00 in Rain Light Rain
2:13 AM 68.0 °F 66.2 °F 94% 29.90 in 9.0 mi WSW 5.8 mph - 0.00 in Rain Light Rain
2:23 AM 68.0 °F 66.2 °F 94% 29.90 in 10.0 mi WSW 5.8 mph - 0.00 in   Haze
2:32 AM 68.0 °F 66.2 °F 94% 29.91 in 6.0 mi West 4.6 mph - 0.01 in Rain Rain
2:34 AM 68.0 °F 66.2 °F 94% 29.91 in 5.0 mi West 5.8 mph - 0.02 in Rain Rain
2:53 AM 66.0 °F 63.0 °F 90% 29.91 in 10.0 mi West 11.5 mph 18.4 mph 0.02 in   Haze
3:08 AM 64.4 °F 62.6 °F 94% 29.92 in 10.0 mi West 12.7 mph 20.7 mph 0.00 in Rain Light Rain
3:53 AM 62.1 °F 59.0 °F 90% 29.91 in 10.0 mi West 6.9 mph - 0.07 in Rain Light Rain
4:03 AM 60.8 °F 57.2 °F 88% 29.91 in 10.0 mi NW 5.8 mph - 0.01 in Rain Light Rain
4:19 AM 57.2 °F 55.4 °F 94% 29.93 in 10.0 mi NW 9.2 mph 24.2 mph 0.01 in   Haze
4:26 AM 57.2 °F 53.6 °F 88% 29.93 in 10.0 mi NW 9.2 mph 16.1 mph 0.01 in Rain Light Rain
4:35 AM 55.4 °F 53.6 °F 94% 29.94 in 9.0 mi NW 5.8 mph - 0.02 in Rain Light Rain
4:53 AM 55.0 °F 52.0 °F 89% 29.94 in 10.0 mi NNW 5.8 mph - 0.03 in Rain Light Rain
5:53 AM 55.0 °F 52.0 °F 89% 29.97 in 10.0 mi Variable 4.6 mph - 0.02 in Rain Light Rain
6:53 AM 55.0 °F 52.0 °F 89% 30.02 in 5.0 mi NW 9.2 mph - 0.02 in Rain Light Rain
7:53 AM 55.0 °F 53.1 °F 93% 30.05 in 10.0 mi WNW 4.6 mph - 0.03 in   Scattered Clouds
8:53 AM 55.0 °F 51.1 °F 86% 30.08 in 10.0 mi NNW 9.2 mph 16.1 mph N/A   Overcast
9:53 AM 54.0 °F 46.9 °F 77% 30.09 in 10.0 mi North 5.8 mph - N/A   Partly Cloudy
10:53 AM 55.0 °F 46.0 °F 72% 30.12 in 10.0 mi North 11.5 mph - N/A   Clear
11:53 AM 57.0 °F 42.1 °F 57% 30.14 in 10.0 mi NNE 11.5 mph 19.6 mph N/A   Clear
12:53 PM 57.0 °F 39.9 °F 53% 30.14 in 10.0 mi North 10.4 mph - N/A   Clear
1:53 PM 57.9 °F 39.9 °F 51% 30.14 in 10.0 mi North 8.1 mph - N/A   Clear
2:53 PM 57.9 °F 39.9 °F 51% 30.13 in 10.0 mi NNE 9.2 mph - N/A   Clear
3:53 PM 59.0 °F 39.9 °F 49% 30.13 in 10.0 mi North 6.9 mph - N/A   Clear
4:53 PM 59.0 °F 41.0 °F 51% 30.13 in 10.0 mi North 6.9 mph - N/A   Clear
5:53 PM 59.0 °F 39.9 °F 49% 30.16 in 10.0 mi North 4.6 mph - N/A   Clear
6:53 PM 55.9 °F 44.1 °F 64% 30.16 in 10.0 mi NNW 3.5 mph - N/A   Clear
7:53 PM 55.0 °F 45.0 °F 69% 30.19 in 10.0 mi Calm Calm - N/A   Clear
8:53 PM 52.0 °F 46.9 °F 83% 30.22 in 10.0 mi Calm Calm - N/A   Clear
9:53 PM 50.0 °F 46.0 °F 86% 30.25 in 10.0 mi Calm Calm - N/A   Clear
10:53 PM 48.0 °F 45.0 °F 89% 30.25 in 10.0 mi NNE 3.5 mph - N/A   Clear
11:53 PM 46.0 °F 44.1 °F 93% 30.25 in 10.0 mi Calm Calm - N/A   Clear